Retour au catalogue

NOAA 16 DEB

ActifPO
NORAD 41074·DEBRIS·🇺🇸 United States

Lancé Sep 21, 2000 depuis Vandenberg Space Force Base

Loading…

Prochains Passages (prochaines 24 heures)

TLE

FraisSource: Space-Track

Époque: Sep 14, 2026, 00:01 UTC

1 41074U 00055AH  26257.00109046  .00001237  00000-0  33662-3 0  9994
2 41074  98.8776  94.5333 0082202 305.5546  53.8001 14.47487768566406

Suivez NOAA 16 DEB en temps réel avec AllMySat

Download on the App Store